Regional Weather Roundup
Issued by NWS Binghamton, NY

Home | Current Version | Previous Version | Text Only | Print | Product List | Glossary On
Versions: 1 2 3 4 5 6 7 8 9 10 11 12 13 14 15 16 17 18 19 20 21 22 23 24 25 26 27 28 29 30 31 32 33 34 35 36 37 38 39 40 41 42 43 44 45 46 47 48 49 50
000
ASUS41 KBGM 071310
RWRBGM

REGIONAL WEATHER ROUNDUP
NATIONAL WEATHER SERVICE BINGHAMTON NY
800 AM EST WED DEC 07 2016

Note: "fair" indicates few or no clouds below 12,000 feet with no
significant weather and/or obstructions to visibility.

* = Station(s) that does not report precipitation, such as rain,
snow, etc, also no thunder or fog.

NYZ009-015>018-022>025-036-037-044>046-055>057-062-071400
...Central New York...

CITY           SKY/WX    TMP DP  RH WIND       PRES   REMARKS
Binghamton     CLOUDY    32  32 100 SW7       29.89R WCI  26
Cortland       CLOUDY    36  36 100 W5        29.90R WCI  32
Dansville      PTCLDY    40  30  67 VRB6      29.92R
Elmira         MOCLDY    35  32  88 SW5       29.92R WCI  31
Seneca Falls   MOSUNNY   37  37 100 SW6       29.92R WCI  33
Ithaca         CLOUDY    35  34  96 S3        29.92R
Hamilton       CLOUDY    34  32  93 SW5       29.90R WCI  30
Monticello     CLOUDY    32  32 100 CALM      29.94R
Norwich        LGT RAIN  34  34 100 S3        29.92R
Penn Yan       CLOUDY    39  32  76 SW7       29.90R WCI  34
Rome           LGT RAIN  33  33 100 E6        29.92S FOG     WCI  28
Sidney         LGT RAIN  32  32 100 CALM      29.92R
Syracuse       CLOUDY    38  36  92 SW9       29.90R WCI  31
$$

PAZ038>040-043-044-047-048-072-071400
...Northeast Pennsylvania...

CITY           SKY/WX    TMP DP  RH WIND       PRES   REMARKS
Hazleton       CLOUDY    34  34 100 CALM      29.97R FOG
Scranton       FOG       35  34  96 W3        29.96R VSB 1/4
$$
&&
KEY
WCI = Wind Chill Index
VSB = Visibility
HX  = Heat Index
$$



USA.gov is the U.S. government's official web portal to all federal, state and local government web resources and services.